This demonstration page uses our WeatherBlox Daily Observations layout. Learn more.

Left ArrowRight Arrow

34.16533, -84.80231

Hourly Observations for April 11, 2016

Temp ( °F °C ) Dew Point ( °F °C ) Humidity (%) Winds ( mph kmh ) Pressure ( in mb ) Visibility ( mi km ) Precip ( " mm )
12:53 am 00:53 Clear 49 9.4 36 2.2 61 61 E 5 7 30.23 1024 10 16 0.00 0.00
1:53 am 01:53 Clear 49 9.4 35 1.7 59 59 ESE 8 13 30.22 1023 10 16 0.00 0.00
2:53 am 02:53 Clear 48 8.9 35 1.7 61 61 ESE 9 15 30.19 1022 10 16 0.00 0.00
3:53 am 03:53 Clear 47 8.3 36 2.2 66 66 SE 7 11 30.20 1023 10 16 0.00 0.00
4:53 am 04:53 Clear 47 8.3 38 3.3 71 71 ESE 5 7 30.21 1023 10 16 0.00 0.00
5:22 am 05:22 Mostly Cloudy 47 8.3 39 3.9 74 74 ESE 5 7 30.24 1024 10 16 0.00 0.00
5:53 am 05:53 Cloudy 48 8.9 40 4.4 74 74 Calm 30.24 1024 10 16 0.00 0.00
6:53 am 06:53 Cloudy 50 10 44 6.7 80 80 E 5 7 30.25 1025 10 16 0.00 0.00
7:53 am 07:53 Cloudy 51 10.6 46 7.8 83 83 E 5 7 30.25 1024 10 16 0.00 0.00
8:33 am 08:33 Partly Cloudy 52 11.1 48 8.9 86 86 VRB 7 11 30.27 1025 10 16 0.00 0.00
8:53 am 08:53 Mostly Sunny 53 11.7 49 9.4 86 86 SE 9 15 30.25 1024 10 16 0.00 0.00
9:53 am 09:53 Mostly Sunny 57 13.9 50 10 78 78 ESE 8 13 30.25 1024 10 16 0.00 0.00
10:53 am 10:53 Sunny 60 15.6 50 10 70 70 SSE 10 17 30.23 1024 10 16 0.00 0.00
11:53 am 11:53 Sunny 63 17.2 48 8.9 58 58 SSE 7 11 30.22 1023 10 16 0.00 0.00
12:53 pm 12:53 Sunny 66 18.9 47 8.3 50 50 SE 12 19 30.19 1022 10 16 0.00 0.00
1:53 pm 13:53 Sunny 68 20 49 9.4 51 51 SE 6 9 30.15 1021 10 16 0.00 0.00
2:53 pm 14:53 Sunny 71 21.7 48 8.9 44 44 S 6 9 30.12 1020 10 16 0.00 0.00
3:53 pm 15:53 Partly Cloudy 70 21.1 51 10.6 51 51 S 7 11 30.09 1019 10 16 0.00 0.00
4:53 pm 16:53 Cloudy with Light Rain 66 18.9 54 12.2 65 65 Calm 30.11 1020 10 16 0.00 0.03
5:53 pm 17:53 Cloudy with Light Rain 61 16.1 59 15 93 93 Calm 30.12 1020 4 6 0.11 2.79
6:53 pm 18:53 Cloudy with Light Rain 60 15.6 59 15 96 96 N 3 6 30.11 1020 9 14 0.03 0.76
7:53 pm 19:53 Cloudy with Light Rain 60 15.6 59 15 96 96 NNE 3 6 30.08 1019 4 6 0.03 0.76
8:53 pm 20:53 Cloudy with Rain 59 15 58 14.4 96 96 NE 3 6 30.12 1020 5 8 0.09 2.29
9:53 pm 21:53 Cloudy with Rain 58 14.4 58 14.4 100 100 Calm 30.12 1020 4 6 0.18 4.57
10:53 pm 22:53 Cloudy with Light Rain 57 13.9 57 13.9 100 100 Calm 30.12 1020 5 8 0.08 2.03
11:53 pm 23:53 Cloudy with Light Rain 57 13.9 56 13.3 96 96 SSE 8 13 30.09 1019 7 11 0.07 1.78

Powered by AerisWeather